Trabzon, Turkey

10:46 AM +03 on May 27, 2017 (GMT +0300)
Trabzon

Weather History for LTCG - January, 2013

Change the Weather History Date:

Friday, January 18, 2013

  Actual Average Record
Temperature  
Mean Temperature 58 °F -  
Max Temperature 64 °F 49 °F 73 °F (2016)
Min Temperature 51 °F 38 °F 33 °F (2002)
Degree Days  
Heating Degree Days 8    
Growing Degree Days 8 (Base 50)    
Moisture  
Dew Point 24 °F    
Average Humidity 26    
Maximum Humidity 63    
Minimum Humidity 14    
Precipitation  
Precipitation 0.00 in - - ()
Sea Level Pressure  
Sea Level Pressure 29.95 in    
Wind  
Wind Speed 12 mph ()    
Max Wind Speed 23 mph    
Max Gust Speed 31 mph    
Visibility 6.5 miles    
Events      
Averages and records for this station are not official NWS values.
T = Trace of Precipitation, MM = Missing Value Source: Averaged Metar Reports

Daily Weather History Graph

Daily Weather History Graph

Search for Another Location

Airport or City:

Trip Planner

Search our weather history database for the weather conditions in past years. The results will help you decide how hot, cold, wet, or windy it might be!

Date:

Astronomy

Jan. 18, 2013 Rise Set
Actual Time 6:42 AM EET 4:20 PM EET
Civil Twilight 6:12 AM EET 4:50 PM EET
Nautical Twilight 5:38 AM EET 5:24 PM EET
Astronomical Twilight 5:05 AM EET 5:57 PM EET
Moon 10:05 AM EET (1/18) 11:53 PM EET (1/18)
Length of Visible Light 10h 38m
Length of Day
9h 38m
Waxing Crescent, 44% of the Moon is Illuminated
Jan 18
Waxing Crescent
Jan 19
First Quarter
Jan 27
Full
Feb 3
Last Quarter
Feb 10
New

Hourly Weather History & Observations

Time (EET) Temp. Dew Point Humidity Pressure Visibility Wind Dir Wind Speed Gust Speed Precip Events Conditions
12:20 AM 57.2 °F 23.0 °F 27% 30.04 in 6.2 mi SW 11.5 mph - N/A   Mostly Cloudy
12:50 AM 57.2 °F 24.8 °F 29% 30.04 in 6.2 mi SSW 9.2 mph - N/A   Mostly Cloudy
1:20 AM 57.2 °F 24.8 °F 29% 30.01 in 6.2 mi SSW 9.2 mph - N/A   Mostly Cloudy
1:50 AM 57.2 °F 24.8 °F 29% 30.04 in 6.2 mi SW 9.2 mph - N/A   Mostly Cloudy
2:00 AM 58 °F 23 °F 15% 30.04 in 12 mi SW 9.2 mph - -   Mostly Cloudy
2:20 AM 53.6 °F 35.6 °F 51% 30.01 in 6.2 mi ENE 4.6 mph - N/A   Mostly Cloudy
2:50 AM 55.4 °F 32.0 °F 41% 30.01 in 6.2 mi SE 5.8 mph - N/A   Mostly Cloudy
3:20 AM 51.8 °F 32.0 °F 47% 30.01 in 6.2 mi East 8.1 mph - N/A   Mostly Cloudy
3:50 AM 57.2 °F 24.8 °F 29% 30.01 in 6.2 mi South 8.1 mph - N/A   Mostly Cloudy
4:20 AM 59.0 °F 24.8 °F 27% 29.98 in 6.2 mi SSW 13.8 mph - N/A   Mostly Cloudy
4:50 AM 59.0 °F 23.0 °F 25% 29.98 in 6.2 mi SSW 19.6 mph - N/A   Mostly Cloudy
5:20 AM 60.8 °F 24.8 °F 25% 29.98 in 6.2 mi SSW 20.7 mph - N/A   Mostly Cloudy
5:50 AM 60.8 °F 24.8 °F 25% 30.01 in 6.2 mi SSW 21.9 mph - N/A   Mostly Cloudy
6:20 AM 60.8 °F 24.8 °F 25% 30.01 in 6.2 mi SSW 20.7 mph - N/A   Mostly Cloudy
6:50 AM 60.8 °F 24.8 °F 25% 29.98 in 6.2 mi SW 19.6 mph - N/A   Mostly Cloudy
7:20 AM 60.8 °F 24.8 °F 25% 30.01 in 6.2 mi SW 19.6 mph - N/A   Mostly Cloudy
7:50 AM 60.8 °F 24.8 °F 25% 30.01 in 6.2 mi SSW 20.7 mph - N/A   Mostly Cloudy
8:00 AM 61 °F 24 °F 14% 30.01 in 12 mi SSW 20.7 mph - -   Mostly Cloudy
8:20 AM 60.8 °F 24.8 °F 25% 30.01 in 6.2 mi SW 19.6 mph - N/A   Mostly Cloudy
8:50 AM 60.8 °F 24.8 °F 25% 30.01 in 6.2 mi SSW 17.3 mph - N/A   Mostly Cloudy
9:20 AM 62.6 °F 26.6 °F 26% 30.01 in 6.2 mi SSW 17.3 mph - N/A   Mostly Cloudy
9:50 AM 64.4 °F 24.8 °F 22% 29.98 in 6.2 mi SSW 17.3 mph - N/A   Mostly Cloudy
10:20 AM 64.4 °F 26.6 °F 24% 29.98 in 6.2 mi SSW 15.0 mph - N/A   Mostly Cloudy
10:50 AM 64.4 °F 24.8 °F 22% 29.98 in 6.2 mi SSW 13.8 mph - N/A   Mostly Cloudy
11:20 AM 64.4 °F 24.8 °F 22% 29.95 in 6.2 mi SSW 16.1 mph - N/A   Mostly Cloudy
11:50 AM 64.4 °F 33.8 °F 32% 29.95 in 6.2 mi ENE 5.8 mph - N/A   Mostly Cloudy
12:20 PM 55.4 °F 39.2 °F 54% 29.95 in 6.2 mi East 9.2 mph - N/A   Mostly Cloudy
12:50 PM 55.4 °F 42.8 °F 63% 29.92 in 6.2 mi East 6.9 mph - N/A   Mostly Cloudy
1:20 PM 57.2 °F 39.2 °F 51% 29.92 in 6.2 mi East 9.2 mph - N/A   Mostly Cloudy
1:50 PM 60.8 °F 30.2 °F 31% 29.92 in 6.2 mi ESE 8.1 mph - N/A   Mostly Cloudy
2:00 PM 62 °F 30 °F 19% 29.92 in 12 mi ESE 8.1 mph - -   Mostly Cloudy
2:20 PM 60.8 °F 32.0 °F 34% 29.92 in 6.2 mi ESE 10.4 mph - N/A   Mostly Cloudy
2:50 PM 60.8 °F 30.2 °F 31% 29.92 in 6.2 mi ESE 10.4 mph - N/A   Mostly Cloudy
3:20 PM 59.0 °F 30.2 °F 34% 29.89 in 6.2 mi East 9.2 mph - N/A   Mostly Cloudy
3:50 PM 64.4 °F 23.0 °F 21% 29.89 in 6.2 mi South 10.4 mph - N/A   Mostly Cloudy
4:20 PM 64.4 °F 23.0 °F 21% 29.89 in 5.0 mi SSW 13.8 mph - N/A   Mostly Cloudy
4:50 PM 64.4 °F 21.2 °F 19% 29.89 in 6.2 mi South 13.8 mph - N/A   Mostly Cloudy
5:20 PM 62.6 °F 19.4 °F 19% 29.89 in 6.2 mi SW 12.7 mph - N/A   Mostly Cloudy
5:50 PM 62.6 °F 19.4 °F 19% 29.89 in 6.2 mi SSW 13.8 mph - N/A   Mostly Cloudy
6:20 PM 62.6 °F 17.6 °F 18% 29.89 in 6.2 mi SSW 17.3 mph - N/A   Mostly Cloudy
6:50 PM 62.6 °F 15.8 °F 16% 29.89 in 6.2 mi SSW 18.4 mph - N/A   Mostly Cloudy
7:20 PM 62.6 °F 15.8 °F 16% 29.86 in 6.2 mi SSW 23.0 mph - N/A   Mostly Cloudy
7:50 PM 62.6 °F 15.8 °F 16% 29.86 in 6.2 mi SSW 23.0 mph - N/A   Mostly Cloudy
8:20 PM 62.6 °F 15.8 °F 16% 29.86 in 6.2 mi SSW 21.9 mph - N/A   Mostly Cloudy
8:50 PM 62.6 °F 15.8 °F 16% 29.89 in 6.2 mi SSW 18.4 mph 31.1 mph N/A   Mostly Cloudy
9:20 PM 62.6 °F 14.0 °F 15% 29.89 in 6.2 mi SW 17.3 mph - N/A   Mostly Cloudy
9:50 PM 62.6 °F 14.0 °F 15% 29.86 in 6.2 mi SSW 15.0 mph - N/A   Mostly Cloudy
10:20 PM 62.6 °F 14.0 °F 15% 29.86 in 6.2 mi SSW 15.0 mph - N/A   Mostly Cloudy
10:50 PM 62.6 °F 14.0 °F 15% 29.86 in 6.2 mi SSW 15.0 mph - N/A   Mostly Cloudy
11:20 PM 62.6 °F 12.2 °F 14% 29.86 in 6.2 mi SW 15.0 mph - N/A   Mostly Cloudy
11:50 PM 62.6 °F 14.0 °F 15% 29.86 in 6.2 mi SSW 13.8 mph - N/A   Mostly Cloudy